Wenatchee, WA
on Tuesday, February 5, 2013

Tuesday
Previous Day Next Day
Daily Summary
 ActualAverageRecord
Temperature
Mean Temperature °F 30°F  
Max Temperature 39°F 37°F 52°F (1967)
Min Temperature 26°F 23°F -5°F (2014)
Degree Days
Heating Degree Days 32 35  
Month to date heating degree days 173 175  
Since 1 July heating degree days 4116 4432  
Cooling Degree Days 0 0  
Month to date cooling degree days 0 0  
Year to date cooling degree days 0 0  
Moisture
Dew Point 31°F   
Average Humidity 93    
Maximum Humidity 100    
Minimum Humidity 82    
Precipitation
Precipitation T in 0.05 in 0.29 in (1960)
Month to date precipitation T 0.27  
Year to date precipitation 1.46 2.14  
Snow
Snow 0.00 in 0.20 in in ()
Month to date snowfall 0.0 1.5  
Since 1 July snowfall 43.8 41.9  
Snow Depth 4.00 in   
Wind
Wind Speed 1 mph   
Max Wind Speed 13 mph   
Max Gust Speed mph   
Visibility 2 miles   
Events Fog   

Key: T is trace of precipitation, MM is missing value
Source: NWS Daily Summary
Time(PST)TemperatureDew PointHumidity Pressure Visibility Wind DirectionWind SpeedGust SpeedPrecipitationEvents Conditions
12:06 AM 30.2°F 28.4°F 93% 29.95 in 0.2 miles Calm Calm - N/A Fog Light Freezing Fog
12:36 AM 30.2°F 28.4°F 93% 29.94 in 0.2 miles Calm Calm - N/A Fog Light Freezing Fog
12:55 AM 30.9°F 28.9°F 92% 29.98 in 0.2 miles Calm Calm - N/A Fog Light Freezing Fog
1:35 AM 30.2°F 30.2°F 100% 29.92 in 0.5 miles ENE 3.5 mph - N/A Fog Light Freezing Fog
1:42 AM 30.2°F 30.2°F 100% 29.93 in 0.2 miles Calm Calm - N/A Fog Light Freezing Fog
1:55 AM 30.9°F 30.0°F 96% 29.96 in 0.5 miles Calm Calm - N/A Fog Light Freezing Fog
2:04 AM 30.2°F 30.2°F 100% 29.92 in 2.5 miles Calm Calm - N/A   Overcast
2:12 AM 30.2°F 28.4°F 93% 29.92 in 0.8 miles Calm Calm - N/A   Overcast
2:33 AM 30.2°F 30.2°F 100% 29.91 in 2.0 miles Calm Calm - N/A   Overcast
2:55 AM 32.0°F 30.0°F 92% 29.94 in 2.5 miles Calm Calm - N/A   Overcast
3:22 AM 32.0°F 30.2°F 93% 29.89 in 1.8 miles Calm Calm - N/A   Overcast
3:32 AM 32.0°F 30.2°F 93% 29.89 in 0.5 miles Calm Calm - N/A Fog Fog
3:41 AM 30.2°F 30.2°F 100% 29.89 in 0.2 miles Calm Calm - N/A Fog Light Freezing Fog
3:55 AM 32.0°F 30.0°F 92% 29.92 in 0.2 miles Calm Calm - N/A Fog Fog
4:24 AM 32.0°F 30.2°F 93% 29.89 in 0.2 miles Calm Calm - N/A Fog Fog
4:55 AM 32.0°F 30.9°F 96% 29.91 in 0.2 miles Calm Calm - N/A Fog Fog
5:38 AM 32.0°F 30.2°F 93% 29.86 in 0.8 miles Calm Calm - N/A   Mist
5:55 AM 32.0°F 28.9°F 88% 29.89 in 0.5 miles Calm Calm - N/A Fog Fog
6:55 AM 30.9°F 30.0°F 96% 29.90 in 2.0 miles NNW 4.6 mph - N/A   Overcast
7:03 AM 30.2°F 30.2°F 100% 29.86 in 3.0 miles Calm Calm - N/A   Overcast
7:15 AM 30.2°F 30.2°F 100% 29.86 in 1.8 miles WSW 4.6 mph - N/A   Overcast
7:27 AM 30.2°F 30.2°F 100% 29.86 in 0.5 miles SW 3.5 mph - N/A Fog Light Freezing Fog
7:37 AM 30.2°F 30.2°F 100% 29.86 in 0.2 miles Calm Calm - N/A Fog Light Freezing Fog
7:55 AM 30.9°F 30.0°F 96% 29.90 in 1.2 miles Calm Calm - N/A   Overcast
8:07 AM 32.0°F 30.2°F 93% 29.86 in 0.5 miles Calm Calm - N/A Fog Fog
8:15 AM 32.0°F 30.2°F 93% 29.85 in 0.2 miles Calm Calm - N/A Fog Fog
8:55 AM 32.0°F 30.9°F 96% 29.87 in 0.2 miles Calm Calm - N/A Fog Fog
9:12 AM 32.0°F 30.2°F 93% 29.84 in 0.2 miles Calm Calm - N/A Fog Fog
9:37 AM 32.0°F 30.2°F 93% 29.85 in 0.2 miles Calm Calm - N/A Fog Fog
9:55 AM 32.0°F 30.9°F 96% 29.89 in 0.8 miles Calm Calm - N/A   Mist
10:04 AM 32.0°F 32.0°F 100% 29.85 in 1.5 miles Calm Calm - N/A   Overcast
10:44 AM 32.0°F 30.2°F 93% 29.85 in 0.8 miles Calm Calm - N/A   Overcast
10:55 AM 32.0°F 30.9°F 96% 29.89 in 0.5 miles Calm Calm - N/A Fog Fog
11:10 AM 32.0°F 30.2°F 93% 29.85 in 1.2 miles Calm Calm - N/A   Overcast
11:51 AM 33.8°F 30.2°F 87% 29.84 in 2.0 miles Calm Calm - N/A   Overcast
11:55 AM 33.1°F 30.9°F 92% 29.87 in 2.0 miles Calm Calm - N/A   Overcast
12:55 PM 34.0°F 32.0°F 92% 29.86 in 2.5 miles Calm Calm - N/A   Overcast
1:45 PM 35.6°F 32.0°F 87% 29.80 in 3.0 miles East 3.5 mph - N/A   Overcast
1:55 PM 35.1°F 32.0°F 89% 29.83 in 3.0 miles ESE 4.6 mph - N/A   Overcast
2:32 PM 37.4°F 33.8°F 87% 29.81 in 6.0 miles East 6.9 mph - N/A   Scattered Clouds
2:55 PM 36.0°F 33.1°F 89% 29.83 in 5.0 miles East 9.2 mph - N/A   Partly Cloudy
3:55 PM 37.0°F 33.1°F 86% 29.83 in 5.0 miles East 9.2 mph - N/A   Scattered Clouds
4:55 PM 37.0°F 32.0°F 82% 29.83 in 5.0 miles East 12.7 mph - N/A   Haze
5:55 PM 35.1°F 32.0°F 89% 29.85 in 6.0 miles East 3.5 mph - N/A   Partly Cloudy
6:55 PM 35.1°F 32.0°F 89% 29.85 in 7.0 miles ENE 8.1 mph - N/A   Partly Cloudy
7:55 PM 36.0°F 32.0°F 86% 29.86 in 7.0 miles East 4.6 mph - N/A   Partly Cloudy
8:55 PM 34.0°F 30.9°F 89% 29.88 in 5.0 miles Calm Calm - N/A   Overcast
9:55 PM 34.0°F 30.9°F 89% 29.88 in 6.0 miles East 8.1 mph - N/A   Scattered Clouds
10:55 PM 35.1°F 30.9°F 85% 29.90 in 9.0 miles Calm Calm - N/A   Scattered Clouds
11:55 PM 34.0°F 30.0°F 85% 29.92 in 7.0 miles Calm Calm - N/A   Partly Cloudy
Moon Phase
Feb. 05 Feb. 10 Feb. 17 Feb. 25 Mar. 04
Sunrise:07:20 AM (PST) Moon Rise:03:16 AM (PST)2/5
Sunset:05:09 PM (PST) Moon Set:12:23 PM (PST)2/5

Copyright © 2014 The Weather Underground, Inc.